This demonstration page uses our WeatherBlox Daily Observations layout. Learn more.

Hourly Observations for January 18, 2020

Temp ( °F °C ) Dew Point ( °F °C ) Humidity (%) Winds ( mph kmh ) Pressure ( in mb ) Visibility ( mi km ) Precip ( " mm )
12:15 am 00:15 Cloudy 30 -1 28 -2 93 93 SE 10 17 30.3 1026 10 16.0934 N/A
12:36 am 00:36 Cloudy 30 -1 28 -2 93 93 SE 12 19 30.29 1026 10 16.0934 N/A
12:56 am 00:56 Cloudy 30 -1 30 -1 100 100 SSE 10 17 30.27 1025 7 11.26538 N/A
1:15 am 01:15 Cloudy 30 -1 30 -1 100 100 SE 12 19 30.24 1024 7 11.26538 N/A
1:35 am 01:35 Cloudy 30 -1 30 -1 100 100 SSE 12 19 30.23 1024 5 8.0467 N/A
1:55 am 01:55 Cloudy 32 0 32 0 100 100 SSE 14 22 30.2 1023 7 11.26538 N/A
2:15 am 02:15 Cloudy 32 0 32 0 100 100 SSE 10 17 30.18 1022 5 8.0467 N/A
2:35 am 02:35 Cloudy 32 0 32 0 100 100 SSE 12 19 30.17 1022 5 8.0467 N/A
2:55 am 02:55 Cloudy 32 0 32 0 100 100 SSE 12 19 30.15 1021 7 11.26538 N/A
3:16 am 03:16 Cloudy 32 0 32 0 100 100 SSE 9 15 30.14 1020 7 11.26538 N/A
3:35 am 03:35 Cloudy 32 0 32 0 100 100 SSE 12 19 30.13 1020 4 6.43736 N/A
3:55 am 03:55 Cloudy 32 0 32 0 100 100 SSE 12 19 30.12 1020 4 6.43736 N/A
4:15 am 04:15 Cloudy 32 0 32 0 100 100 SSE 8 13 30.1 1019 3 4.82802 N/A
4:35 am 04:35 Cloudy 32 0 32 0 100 100 SSE 8 13 30.08 1018 7 11.26538 N/A
4:56 am 04:56 Cloudy 32 0 32 0 100 100 SSE 10 17 30.06 1018 4 6.43736 N/A
5:16 am 05:16 Cloudy 32 0 32 0 100 100 SSE 10 17 30.03 1017 7 11.26538 N/A
5:36 am 05:36 Cloudy 32 0 32 0 100 100 SSE 9 15 30.01 1016 5 8.0467 N/A
5:56 am 05:56 Cloudy 32 0 32 0 100 100 SSE 8 13 30 1016 4 6.43736 N/A
6:15 am 06:15 Cloudy 32 0 32 0 100 100 SSE 9 15 29.98 1015 3 4.82802 N/A
6:35 am 06:35 Cloudy 32 0 32 0 100 100 SSE 12 19 29.95 1014 4 6.43736 N/A
6:55 am 06:55 Cloudy 34 1 34 1 100 100 WSW 7 11 30 1016 3 4.82802 N/A
7:16 am 07:16 Cloudy 34 1 34 1 100 100 SSW 9 15 29.98 1015 2.5 4.02335 N/A
7:36 am 07:36 Cloudy 34 1 34 1 100 100 S 15 24 29.95 1014 1.75 2.816345 N/A
7:56 am 07:56 Cloudy 34 1 34 1 100 100 SSE 9 15 29.95 1014 2.5 4.02335 N/A
8:15 am 08:15 Cloudy 34 1 34 1 100 100 S 14 22 29.93 1014 3 4.82802 N/A
8:35 am 08:35 Cloudy 34 1 34 1 100 100 S 13 20 29.91 1013 4 6.43736 N/A
8:56 am 08:56 Cloudy 34 1 34 1 100 100 S 12 19 29.91 1013 7 11.26538 N/A
9:15 am 09:15 Cloudy 34 1 34 1 100 100 S 12 19 29.91 1013 7 11.26538 N/A
9:35 am 09:35 Cloudy 36 2 36 2 100 100 S 10 17 29.9 1012 5 8.0467 N/A
9:55 am 09:55 Cloudy 36 2 36 2 100 100 S 13 20 29.88 1012 5 8.0467 N/A
10:15 am 10:15 Cloudy 36 2 36 2 100 100 S 12 19 29.87 1011 10 16.0934 N/A
10:36 am 10:36 Cloudy 37 3 37 3 100 100 S 12 19 29.85 1011 5 8.0467 N/A
10:55 am 10:55 Cloudy 37 3 37 3 100 100 S 10 17 29.85 1011 5 8.0467 N/A
11:16 am 11:16 Cloudy 39 4 39 4 100 100 SSW 12 19 29.83 1010 2 3.21868 N/A
11:36 am 11:36 Cloudy 39 4 39 4 100 100 SSW 13 20 29.82 1010 5 8.0467 N/A
11:55 am 11:55 Cloudy 41 5 41 5 100 100 SSW 12 19 29.81 1009 7 11.26538 N/A
12:15 pm 12:15 Cloudy 43 6 43 6 100 100 SSW 18 30 29.79 1009 3 4.82802 N/A
12:35 pm 12:35 Cloudy 45 7 45 7 100 100 SSW 18 30 29.78 1008 4 6.43736 N/A
12:56 pm 12:56 Cloudy 45 7 45 7 100 100 WSW 18 30 29.78 1008 1.5 2.41401 N/A
1:16 pm 13:16 Cloudy 45 7 45 7 100 100 WSW 26 43 29.79 1009 2 3.21868 N/A
1:36 pm 13:36 Cloudy 43 6 43 6 100 100 W 28 44 29.81 1010 7 11.26538 N/A
1:55 pm 13:55 Cloudy 43 6 43 6 100 100 W 28 44 29.82 1010 10 16.0934 N/A
2:16 pm 14:16 Cloudy 41 5 41 5 100 100 W 30 48 29.83 1010 10 16.0934 N/A
2:36 pm 14:36 Cloudy 39 4 39 4 100 100 W 32 52 29.85 1011 10 16.0934 N/A
2:56 pm 14:56 Cloudy 39 4 39 4 100 100 W 29 46 29.86 1011 10 16.0934 N/A
3:16 pm 15:16 Cloudy 37 3 37 3 100 100 W 26 43 29.87 1012 4 6.43736 N/A
3:35 pm 15:35 Cloudy 37 3 37 3 100 100 W 24 39 29.88 1012 7 11.26538 N/A
3:56 pm 15:56 Mostly Cloudy 39 4 37 3 93 93 W 23 37 29.88 1012 10 16.0934 N/A
4:15 pm 16:15 Cloudy 37 3 37 3 100 100 W 23 37 29.89 1012 10 16.0934 N/A
4:36 pm 16:36 Cloudy 37 3 37 3 100 100 W 26 43 29.9 1013 10 16.0934 N/A
4:56 pm 16:56 Cloudy 37 3 37 3 100 100 W 22 35 29.91 1013 10 16.0934 N/A
5:15 pm 17:15 Cloudy 36 2 36 2 100 100 WSW 33 54 29.93 1013 5 8.0467 N/A
5:36 pm 17:36 Cloudy 36 2 36 2 100 100 W 26 43 29.93 1013 7 11.26538 N/A
5:56 pm 17:56 Cloudy 36 2 36 2 100 100 W 28 44 29.92 1013 10 16.0934 N/A
6:16 pm 18:16 Cloudy 34 1 34 1 100 100 W 24 39 29.94 1014 10 16.0934 N/A
6:36 pm 18:36 Cloudy 32 0 32 0 100 100 W 32 52 29.96 1014 10 16.0934 N/A
6:56 pm 18:56 Cloudy 32 0 32 0 100 100 W 26 43 29.98 1015 10 16.0934 N/A
7:15 pm 19:15 Cloudy 30 -1 30 -1 100 100 W 28 44 29.99 1016 10 16.0934 N/A
7:35 pm 19:35 Cloudy 30 -1 28 -2 93 93 W 22 35 30 1016 10 16.0934 N/A
7:55 pm 19:55 Cloudy 28 -2 27 -3 93 93 W 26 43 30.01 1016 10 16.0934 N/A
8:16 pm 20:16 Cloudy 28 -2 27 -3 93 93 W 20 31 30.02 1017 10 16.0934 N/A
8:36 pm 20:36 Cloudy 27 -3 25 -4 93 93 W 31 50 30.04 1017 10 16.0934 N/A
8:56 pm 20:56 Cloudy 27 -3 25 -4 93 93 W 25 41 30.04 1017 10 16.0934 N/A
9:16 pm 21:16 Cloudy 27 -3 25 -4 93 93 W 28 44 30.05 1017 7 11.26538 N/A
9:35 pm 21:35 Cloudy 25 -4 23 -5 93 93 W 25 41 30.06 1018 10 16.0934 N/A
9:55 pm 21:55 Cloudy 23 -5 21 -6 93 93 W 26 43 30.06 1018 10 16.0934 N/A
10:16 pm 22:16 Cloudy 21 -6 19 -7 93 93 W 24 39 30.08 1019 10 16.0934 N/A
10:35 pm 22:35 Cloudy 21 -6 18 -8 86 86 W 28 44 30.09 1019 10 16.0934 N/A
10:56 pm 22:56 Cloudy 21 -6 18 -8 86 86 W 21 33 30.1 1019 7 11.26538 N/A
11:16 pm 23:16 Cloudy 21 -6 18 -8 86 86 W 21 33 30.1 1019 5 8.0467 N/A
11:36 pm 23:36 Cloudy 21 -6 19 -7 93 93 W 20 31 30.11 1020 5 8.0467 N/A
11:55 pm 23:55 Cloudy 21 -6 19 -7 93 93 W 26 43 30.11 1020 4 6.43736 N/A

Powered by AerisWeather